星链-5304 (STARLINK-5304 )

导读 | 星芒AI

STARLINK-5304 是 SpaceX Starlink 项目中的一颗低轨通信卫星,属于第53批发射的星链卫星群。该卫星运行在约550公里高度的近地轨道,旨在为全球用户提供高速互联网服务。它采用先进的相控阵天线和激光通信技术,提升网络连接的稳定性和传输效率。作为星链星座的一部分,STARLINK-5304 有助于扩大覆盖范围,特别是在偏远和网络基础设施薄弱的地区,推动全球互联网普及。

基本信息
目录编号:
54843
目录名称:
STARLINK-5304
国际标识:
2022-177Z
轨道中心:
EARTH
卫星名称:
星链-5304
卫星全名:
星链-5304 (STARLINK-5304 )
卫星状态:
在轨 (已飞行1089 天)
发射日期:
2022-12-28 UTC
国别 :
美国 (US)
星等 :
--
轨道信息
数据来源 国际轨道数据 AOE轨道数据
星历时间 2025-12-21T08:13:59+0800
11小时前
查看轨道信息
2025-12-18T20:00:00+0800
2天前
查看轨道信息
半长轴 6937.224km 6937.271km
偏心率 0.0001249 0.0001681
轨道倾角 43.003° 43.003°
近地点辐角 268.120° 240.950°
升交点赤经 200.529° 214.172°
平近点角 91.950° 208.164°
近地点 558.22km 557.969km
远地点 559.954km 560.303km
周期 95.838分钟 95.839分钟
每日圈数 15.025338 15.025186
详细信息
固有亮度:
5
最大亮度:
2.5
卫星平台:
Starlink v1.5
覆盖范围:
全球
运营商:
太空探索技术公司
运营商所在国:
美国
制造商(研发单位):
太空探索技术公司
制造商所在国:
美国
使用方式:
暂无
卫星简介
星链(Starlink)计划是由太空探索技术公司(SpaceX)提出的一个巨型低轨卫星互联网星座项目,计划在2019年至2024年间在太空搭建由约1.2万颗卫星组成的“星链”网络,其中1584颗将部署在地球上空550千米处的近地轨道,并从2020年开始工作。该卫星仍在工作。
2D轨道图
3D轨道图
轨道高度分析图
轨道倾角分析图
轨道综合分析图
查看轨道综合分析图